Weather History for Miami, FL

Change the Weather History Date:

Wednesday, March 20, 2013

  Actual Average Record
Temperature  
Mean Temperature 74 °F 73 °F  
Max Temperature 84 °F 81 °F 89 °F (1965)
Min Temperature 64 °F 65 °F 50 °F (1981)
Degree Days  
Heating Degree Days 0 0  
Month to date heating degree days 24 8  
Since 1 July heating degree days 60 124  
Cooling Degree Days 9 8  
Month to date cooling degree days 68 152  
Year to date cooling degree days 547 474  
Growing Degree Days 24 (Base 50)    
Moisture  
Dew Point 64 °F    
Average Humidity 74    
Maximum Humidity 93    
Minimum Humidity 54    
Precipitation  
Precipitation 0.58 in 0.10 in 7.07 in (1949)
Month to date precipitation 0.71 1.83  
Year to date precipitation 3.10 5.70  
Snow  
Snow 0.00 in - - ()
Month to date snowfall 0.0  
Since 1 July snowfall 0.0  
Snow Depth 0.00 in    
Sea Level Pressure  
Sea Level Pressure 29.92 in    
Wind  
Wind Speed 5 mph (SW)    
Max Wind Speed 17 mph    
Max Gust Speed 28 mph    
Visibility 10 miles    
Events Rain , Thunderstorm    
T = Trace of Precipitation, MM = Missing Value Source: NWS Daily Summary

Daily Weather History Graph

Daily Weather History Graph

Search for Another Location

Airport:

Trip Planner

Search our weather history database for the weather conditions in past years. The results will help you decide how hot, cold, wet, or windy it might be!

Date:

Astronomy

Mar. 20, 2013 Rise Set
Actual Time 7:24 AM EDT 7:32 PM EDT
Civil Twilight 7:02 AM EDT 7:55 PM EDT
Nautical Twilight 6:35 AM EDT 8:22 PM EDT
Astronomical Twilight 6:08 AM EDT 8:49 PM EDT
Moon 1:37 PM EDT 2:32 AM EDT
Length of Visible Light 12h 53m
Length of Day
12h 07m
First Quarter, 59% of the Moon is Illuminated
Mar 20
First Quarter
Mar 27
Full
Apr 3
Last Quarter
Apr 10
New
Apr 18
First Quarter

Hourly Weather History & Observations

Time (EDT) Temp. Heat Index Dew Point Humidity Pressure Visibility Wind Dir Wind Speed Gust Speed Precip Events Conditions
12:53 AM 68.0 °F - 63.0 °F 84% 29.97 in 10.0 mi Calm Calm - N/A   Clear
1:53 AM 66.9 °F - 64.0 °F 90% 29.97 in 10.0 mi WNW 3.5 mph - N/A   Scattered Clouds
2:53 AM 66.9 °F - 64.0 °F 90% 29.96 in 10.0 mi Calm Calm - N/A   Scattered Clouds
3:53 AM 66.9 °F - 64.0 °F 90% 29.94 in 10.0 mi Calm Calm - N/A   Partly Cloudy
4:53 AM 66.9 °F - 64.0 °F 90% 29.93 in 10.0 mi Calm Calm - N/A   Clear
5:53 AM 66.9 °F - 64.0 °F 90% 29.94 in 10.0 mi Calm Calm - N/A   Partly Cloudy
6:53 AM 66.9 °F - 64.0 °F 90% 29.95 in 10.0 mi Calm Calm - N/A   Partly Cloudy
7:53 AM 66.9 °F - 64.9 °F 93% 29.97 in 10.0 mi NNE 3.5 mph - N/A   Scattered Clouds
8:53 AM 71.1 °F - 66.9 °F 87% 29.97 in 10.0 mi NE 3.5 mph - N/A   Scattered Clouds
9:53 AM 77.0 °F - 66.0 °F 69% 30.00 in 10.0 mi NNW 3.5 mph - N/A   Scattered Clouds
10:33 AM 77.0 °F - 64.4 °F 65% 29.99 in 10.0 mi Calm Calm - N/A   Mostly Cloudy
10:53 AM 78.1 °F - 64.9 °F 64% 29.99 in 10.0 mi SE 3.5 mph - N/A   Mostly Cloudy
11:49 AM 80.6 °F 81.8 °F 62.6 °F 54% 29.96 in 10.0 mi Variable 3.5 mph - N/A   Mostly Cloudy
11:53 AM 80.1 °F 81.5 °F 63.0 °F 56% 29.96 in 10.0 mi Variable 4.6 mph - N/A   Mostly Cloudy
12:53 PM 80.1 °F 81.5 °F 63.0 °F 56% 29.95 in 10.0 mi Variable 4.6 mph - N/A   Mostly Cloudy
1:53 PM 80.1 °F 81.7 °F 64.0 °F 58% 29.91 in 10.0 mi SSE 4.6 mph - N/A   Mostly Cloudy
2:53 PM 82.0 °F 83.8 °F 64.9 °F 56% 29.87 in 10.0 mi SE 9.2 mph - N/A   Scattered Clouds
3:53 PM 81.0 °F 83.0 °F 66.0 °F 60% 29.86 in 10.0 mi SSE 11.5 mph 17.3 mph N/A   Scattered Clouds
4:53 PM 81.0 °F 83.0 °F 66.0 °F 60% 29.83 in 10.0 mi SSE 11.5 mph 19.6 mph N/A   Scattered Clouds
5:36 PM 73.4 °F - 66.2 °F 78% 29.86 in 1.5 mi WNW 17.3 mph 27.6 mph 0.08 in Rain Heavy Rain
5:53 PM 70.0 °F - 63.0 °F 78% 29.83 in 5.0 mi SSE 10.4 mph - 0.58 in Rain , Thunderstorm Light Thunderstorms and Rain
6:09 PM 71.6 °F - 66.2 °F 83% 29.84 in 10.0 mi SSE 4.6 mph - 0.00 in   Mostly Cloudy
6:53 PM 70.0 °F - 64.0 °F 81% 29.87 in 10.0 mi Calm Calm - 0.00 in   Mostly Cloudy
7:53 PM 70.0 °F - 66.0 °F 87% 29.88 in 10.0 mi SSW 3.5 mph - N/A   Mostly Cloudy
8:53 PM 73.0 °F - 60.1 °F 64% 29.92 in 10.0 mi West 6.9 mph - N/A   Overcast
9:53 PM 73.0 °F - 55.9 °F 55% 29.95 in 10.0 mi NW 13.8 mph 23.0 mph 0.00 in Rain Light Rain
10:53 PM 69.1 °F - 57.9 °F 68% 29.93 in 10.0 mi West 4.6 mph - 0.00 in   Overcast
11:53 PM 69.1 °F - 59.0 °F 70% 29.88 in 10.0 mi West 4.6 mph - N/A   Mostly Cloudy